Terminal Aerodrome Forecast
Issued by NWS Denver/Boulder, CO

Home | Current Version | Previous Version | Text Only | Print | Product List | Glossary On
Versions: 1 2 3 4 5 6 7 8 9 10 11 12 13 14 15 16 17 18 19 20 21 22 23 24 25 26 27 28 29 30 31 32 33 34 35 36 37 38 39 40 41 42 43 44 45 46 47 48 49 50
000
FTUS45 KBOU 191129
TAFDEN
TAF
KDEN 191129Z 1912/2018 22006KT 4SM BR FEW100 SCT200
     FM191500 24006KT P6SM FEW150
     FM192000 17006KT P6SM FEW150 FEW220
     FM200300 20007KT P6SM FEW150 SCT200
     FM201400 21008KT P6SM SCT120 SCT200=

USA.gov is the U.S. government's official web portal to all federal, state and local government web resources and services.